| time (UTC) | temp F | wind direction | speed MPH | gust MPH | rain 1hr in | rain 24hr in | rain mn in | humidity % | barometer mb |
| 20260508012457 | 45 | 27 | 4.0 | 8.0 | 0.00 | 0.00 | 0.00 | 82 | 1010.5 |
| 20260508012004 | 45 | 27 | 4.0 | 8.0 | 0.00 | 0.00 | 0.00 | 82 | 1010.4 |
| 20260508011457 | 45 | 25 | 4.0 | 8.0 | 0.00 | 0.00 | 0.00 | 82 | 1010.4 |
| 20260508011004 | 45 | 22 | 3.0 | 7.0 | 0.00 | 0.00 | 0.00 | 83 | 1010.3 |
| 20260508010457 | 45 | 22 | 4.0 | 9.0 | 0.00 | 0.00 | 0.00 | 82 | 1010.3 |
| 20260508005957 | 45 | 23 | 4.0 | 9.0 | 0.00 | 0.00 | 0.00 | 82 | 1010.4 |
| 20260508005504 | 45 | 27 | 3.0 | 8.0 | 0.00 | 0.00 | 0.00 | 82 | 1010.5 |
| 20260508004956 | 45 | 27 | 3.0 | 8.0 | 0.00 | 0.00 | 0.00 | 82 | 1010.4 |
| 20260508004504 | 45 | 26 | 3.0 | 8.0 | 0.00 | 0.00 | 0.00 | 81 | 1010.4 |
| 20260508003957 | 46 | 28 | 2.0 | 6.0 | 0.00 | 0.00 | 0.00 | 81 | 1010.3 |
| 20260508003504 | 46 | 24 | 3.0 | 6.0 | 0.00 | 0.00 | 0.00 | 81 | 1010.3 |
| 20260508002957 | 46 | 24 | 3.0 | 6.0 | 0.00 | 0.00 | 0.00 | 81 | 1010.2 |
| 20260508002505 | 46 | 24 | 3.0 | 5.0 | 0.00 | 0.00 | 0.00 | 81 | 1010.3 |
| 20260508001957 | 46 | 24 | 2.0 | 5.0 | 0.00 | 0.00 | 0.00 | 81 | 1010.3 |
| 20260508001505 | 46 | 24 | 3.0 | 7.0 | 0.00 | 0.00 | 0.00 | 81 | 1010.4 |
| 20260508000957 | 46 | 22 | 3.0 | 7.0 | 0.00 | 0.00 | 0.00 | 81 | 1010.4 |
| 20260508000504 | 46 | 26 | 3.0 | 7.0 | 0.00 | 0.00 | 0.00 | 81 | 1010.4 |
| 20260507235957 | 46 | 30 | 3.0 | 7.0 | 0.00 | 0.00 | 0.00 | 81 | 1010.3 |
| 20260507235505 | 46 | 30 | 3.0 | 6.0 | 0.00 | 0.00 | 0.00 | 81 | 1010.4 |
| 20260507234956 | 46 | 27 | 3.0 | 6.0 | 0.00 | 0.00 | 0.00 | 82 | 1010.5 |
| 20260507234505 | 46 | 24 | 2.0 | 6.0 | 0.00 | 0.00 | 0.00 | 81 | 1010.4 |
| 20260507233957 | 46 | 31 | 2.0 | 6.0 | 0.00 | 0.00 | 0.00 | 81 | 1010.4 |
| 20260507233504 | 46 | 30 | 3.0 | 6.0 | 0.00 | 0.00 | 0.00 | 80 | 1010.5 |
| 20260507232957 | 46 | 33 | 3.0 | 6.0 | 0.00 | 0.00 | 0.00 | 80 | 1010.5 |
| 20260507232504 | 47 | 33 | 3.0 | 7.0 | 0.00 | 0.00 | 0.00 | 80 | 1010.6 |
| 20260507231957 | 47 | 27 | 3.0 | 7.0 | 0.00 | 0.00 | 0.00 | 79 | 1010.4 |
| 20260507231504 | 47 | 29 | 3.0 | 6.0 | 0.00 | 0.00 | 0.00 | 79 | 1010.4 |
| 20260507230957 | 47 | 27 | 3.0 | 6.0 | 0.00 | 0.00 | 0.00 | 79 | 1010.5 |
| 20260507230505 | 47 | 26 | 3.0 | 8.0 | 0.00 | 0.00 | 0.00 | 80 | 1010.3 |
| 20260507225957 | 47 | 32 | 3.0 | 8.0 | 0.00 | 0.00 | 0.00 | 80 | 1010.5 |
| 20260507225504 | 47 | 33 | 3.0 | 5.0 | 0.00 | 0.00 | 0.00 | 80 | 1010.5 |
| 20260507224957 | 47 | 32 | 2.0 | 5.0 | 0.00 | 0.00 | 0.00 | 81 | 1010.4 |
| 20260507224504 | 47 | 31 | 2.0 | 5.0 | 0.00 | 0.00 | 0.00 | 81 | 1010.4 |
| 20260507223957 | 47 | 34 | 2.0 | 5.0 | 0.00 | 0.00 | 0.00 | 81 | 1010.5 |
| 20260507223505 | 47 | 42 | 2.0 | 4.0 | 0.00 | 0.00 | 0.00 | 81 | 1010.5 |
| 20260507222957 | 47 | 43 | 2.0 | 4.0 | 0.00 | 0.00 | 0.00 | 80 | 1010.5 |
| 20260507222457 | 47 | 44 | 3.0 | 8.0 | 0.00 | 0.00 | 0.00 | 80 | 1010.5 |
| 20260507221957 | 47 | 40 | 3.0 | 8.0 | 0.00 | 0.00 | 0.00 | 79 | 1010.4 |
| 20260507221456 | 48 | 41 | 3.0 | 7.0 | 0.00 | 0.00 | 0.00 | 80 | 1010.4 |
| 20260507220957 | 48 | 46 | 4.0 | 5.0 | 0.00 | 0.00 | 0.00 | 80 | 1010.3 |
| 20260507220457 | 48 | 44 | 4.0 | 9.0 | 0.00 | 0.00 | 0.00 | 80 | 1010.4 |
| 20260507215958 | 48 | 44 | 4.0 | 9.0 | 0.00 | 0.00 | 0.00 | 80 | 1010.4 |
| 20260507215505 | 48 | 41 | 3.0 | 9.0 | 0.00 | 0.00 | 0.00 | 81 | 1010.4 |
| 20260507214957 | 48 | 38 | 3.0 | 7.0 | 0.00 | 0.00 | 0.00 | 82 | 1010.3 |
| 20260507214457 | 48 | 39 | 3.0 | 7.0 | 0.00 | 0.00 | 0.00 | 83 | 1010.2 |
| 20260507214004 | 48 | 36 | 2.0 | 5.0 | 0.00 | 0.00 | 0.00 | 83 | 1010.2 |
| 20260507213505 | 48 | 35 | 3.0 | 6.0 | 0.00 | 0.00 | 0.00 | 83 | 1010.3 |
| 20260507212957 | 48 | 38 | 3.0 | 7.0 | 0.00 | 0.00 | 0.00 | 83 | 1010.3 |
| 20260507212504 | 48 | 37 | 3.0 | 7.0 | 0.00 | 0.00 | 0.00 | 84 | 1010.1 |
| 20260507211957 | 48 | 38 | 3.0 | 8.0 | 0.00 | 0.00 | 0.00 | 84 | 1010.0 |
| 20260507211457 | 48 | 43 | 2.0 | 8.0 | 0.00 | 0.00 | 0.00 | 83 | 1010.1 |
| 20260507211004 | 48 | 45 | 2.0 | 4.0 | 0.00 | 0.00 | 0.00 | 84 | 1009.9 |
| 20260507210504 | 48 | 39 | 3.0 | 8.0 | 0.00 | 0.00 | 0.00 | 84 | 1009.9 |
| 20260507205958 | 48 | 32 | 3.0 | 8.0 | 0.00 | 0.00 | 0.00 | 84 | 1009.8 |
| 20260507205505 | 48 | 32 | 3.0 | 8.0 | 0.00 | 0.00 | 0.00 | 84 | 1009.8 |
| 20260507204957 | 48 | 34 | 3.0 | 7.0 | 0.00 | 0.00 | 0.00 | 84 | 1009.7 |
| 20260507204457 | 48 | 30 | 3.0 | 7.0 | 0.00 | 0.00 | 0.00 | 84 | 1009.6 |
| 20260507204005 | 48 | 29 | 2.0 | 7.0 | 0.00 | 0.00 | 0.00 | 84 | 1009.6 |
| 20260507203505 | 48 | 32 | 2.0 | 6.0 | 0.00 | 0.00 | 0.00 | 84 | 1009.6 |
| 20260507202957 | 48 | 32 | 2.0 | 6.0 | 0.00 | 0.00 | 0.00 | 84 | 1009.4 |
| 20260507202457 | 48 | 35 | 3.0 | 8.0 | 0.00 | 0.00 | 0.00 | 84 | 1009.5 |
| 20260507202006 | 48 | 34 | 3.0 | 8.0 | 0.00 | 0.00 | 0.00 | 84 | 1009.3 |
| 20260507201457 | 48 | 29 | 3.0 | 8.0 | 0.00 | 0.00 | 0.00 | 84 | 1009.3 |
| 20260507200957 | 48 | 25 | 3.0 | 5.0 | 0.00 | 0.00 | 0.00 | 84 | 1009.2 |
| 20260507200504 | 48 | 24 | 3.0 | 7.0 | 0.00 | 0.00 | 0.00 | 84 | 1009.2 |
| 20260507200004 | 48 | 30 | 4.0 | 8.0 | 0.00 | 0.00 | 0.00 | 84 | 1009.2 |
| 20260507195458 | 48 | 34 | 4.0 | 8.0 | 0.00 | 0.00 | 0.00 | 84 | 1009.3 |
| 20260507195005 | 48 | 32 | 3.0 | 7.0 | 0.00 | 0.00 | 0.00 | 84 | 1009.1 |
| 20260507194457 | 48 | 32 | 3.0 | 8.0 | 0.00 | 0.00 | 0.00 | 84 | 1009.2 |
| 20260507193957 | 48 | 32 | 3.0 | 8.0 | 0.00 | 0.00 | 0.00 | 84 | 1009.1 |
| 20260507193457 | 48 | 36 | 3.0 | 7.0 | 0.00 | 0.00 | 0.00 | 83 | 1009.0 |
| 20260507192957 | 48 | 34 | 3.0 | 9.0 | 0.00 | 0.00 | 0.00 | 84 | 1009.1 |
| 20260507192457 | 48 | 28 | 3.0 | 9.0 | 0.00 | 0.00 | 0.00 | 84 | 1009.0 |
| 20260507191957 | 49 | 33 | 3.0 | 7.0 | 0.00 | 0.00 | 0.00 | 84 | 1009.1 |
| 20260507191507 | 49 | 41 | 4.0 | 8.0 | 0.00 | 0.00 | 0.00 | 84 | 1009.1 |
| 20260507191005 | 49 | 44 | 5.0 | 8.0 | 0.00 | 0.00 | 0.00 | 84 | 1008.8 |
| 20260507190457 | 49 | 38 | 4.0 | 8.0 | 0.00 | 0.00 | 0.00 | 84 | 1009.1 |
| 20260507190006 | 49 | 29 | 4.0 | 8.0 | 0.00 | 0.00 | 0.00 | 84 | 1009.0 |
| 20260507185505 | 49 | 32 | 4.0 | 8.0 | 0.00 | 0.00 | 0.00 | 84 | 1008.9 |
| 20260507184957 | 49 | 31 | 3.0 | 8.0 | 0.00 | 0.00 | 0.00 | 84 | 1008.7 |
| 20260507184458 | 49 | 31 | 4.0 | 8.0 | 0.00 | 0.00 | 0.00 | 83 | 1008.6 |
| 20260507183956 | 49 | 28 | 4.0 | 9.0 | 0.00 | 0.00 | 0.00 | 82 | 1008.5 |
| 20260507183504 | 49 | 26 | 4.0 | 9.0 | 0.00 | 0.00 | 0.00 | 82 | 1008.4 |
| 20260507183005 | 49 | 24 | 4.0 | 9.0 | 0.00 | 0.00 | 0.00 | 82 | 1008.7 |
| 20260507182457 | 49 | 25 | 4.0 | 8.0 | 0.00 | 0.00 | 0.00 | 82 | 1008.5 |
| 20260507181957 | 49 | 28 | 3.0 | 8.0 | 0.00 | 0.00 | 0.00 | 82 | 1008.7 |
| 20260507181506 | 49 | 30 | 3.0 | 7.0 | 0.00 | 0.00 | 0.00 | 81 | 1008.7 |
| 20260507181005 | 49 | 27 | 4.0 | 7.0 | 0.00 | 0.00 | 0.00 | 81 | 1008.6 |
| 20260507180505 | 49 | 22 | 5.0 | 10.0 | 0.00 | 0.00 | 0.00 | 81 | 1008.5 |
| 20260507175957 | 49 | 24 | 5.0 | 10.0 | 0.00 | 0.00 | 0.00 | 81 | 1008.2 |
| 20260507175457 | 49 | 27 | 5.0 | 9.0 | 0.00 | 0.00 | 0.00 | 81 | 1008.0 |
| 20260507174957 | 50 | 26 | 5.0 | 9.0 | 0.00 | 0.00 | 0.00 | 80 | 1008.1 |
| 20260507174506 | 50 | 26 | 5.0 | 9.0 | 0.00 | 0.00 | 0.00 | 80 | 1007.9 |
| 20260507174005 | 50 | 27 | 4.0 | 9.0 | 0.00 | 0.00 | 0.00 | 81 | 1007.9 |
| 20260507173457 | 50 | 25 | 4.0 | 9.0 | 0.00 | 0.00 | 0.00 | 80 | 1007.9 |
| 20260507172957 | 50 | 32 | 4.0 | 8.0 | 0.00 | 0.00 | 0.00 | 80 | 1007.8 |
| 20260507172505 | 50 | 31 | 4.0 | 9.0 | 0.00 | 0.00 | 0.00 | 80 | 1007.9 |
| 20260507172004 | 50 | 24 | 4.0 | 10.0 | 0.00 | 0.00 | 0.00 | 80 | 1007.8 |
| 20260507171457 | 50 | 24 | 4.0 | 10.0 | 0.00 | 0.00 | 0.00 | 80 | 1007.8 |
| 20260507171005 | 50 | 24 | 4.0 | 10.0 | 0.00 | 0.00 | 0.00 | 79 | 1007.9 |
| 20260507170457 | 50 | 27 | 4.0 | 9.0 | 0.00 | 0.00 | 0.00 | 79 | 1007.7 |
| 20260507170005 | 50 | 27 | 5.0 | 11.0 | 0.00 | 0.00 | 0.00 | 79 | 1007.5 |
| 20260507165505 | 50 | 29 | 5.0 | 11.0 | 0.00 | 0.00 | 0.00 | 79 | 1007.4 |
| 20260507165005 | 50 | 27 | 6.0 | 11.0 | 0.00 | 0.00 | 0.00 | 79 | 1007.4 |
| 20260507164457 | 50 | 26 | 5.0 | 11.0 | 0.00 | 0.00 | 0.00 | 80 | 1007.3 |
| 20260507163957 | 50 | 31 | 4.0 | 8.0 | 0.00 | 0.00 | 0.00 | 80 | 1007.4 |
| 20260507163458 | 50 | 33 | 4.0 | 8.0 | 0.00 | 0.00 | 0.00 | 80 | 1007.4 |
| 20260507163005 | 50 | 29 | 4.0 | 9.0 | 0.00 | 0.00 | 0.00 | 80 | 1007.4 |
| 20260507162505 | 50 | 26 | 4.0 | 10.0 | 0.00 | 0.00 | 0.00 | 80 | 1007.3 |
| 20260507162005 | 50 | 30 | 4.0 | 10.0 | 0.00 | 0.00 | 0.00 | 80 | 1007.4 |
| 20260507161505 | 50 | 29 | 4.0 | 8.0 | 0.00 | 0.00 | 0.00 | 81 | 1007.4 |
| 20260507161006 | 50 | 23 | 5.0 | 8.0 | 0.00 | 0.00 | 0.00 | 80 | 1007.4 |
| 20260507160505 | 50 | 28 | 6.0 | 11.0 | 0.00 | 0.00 | 0.00 | 80 | 1007.4 |
| 20260507155957 | 50 | 36 | 5.0 | 12.0 | 0.00 | 0.00 | 0.00 | 80 | 1007.4 |
| 20260507155457 | 50 | 36 | 5.0 | 12.0 | 0.00 | 0.00 | 0.00 | 80 | 1007.4 |
| 20260507154958 | 50 | 29 | 4.0 | 10.0 | 0.00 | 0.00 | 0.00 | 80 | 1007.4 |
| 20260507154457 | 50 | 27 | 4.0 | 9.0 | 0.00 | 0.00 | 0.00 | 82 | 1007.5 |
| 20260507154005 | 50 | 33 | 4.0 | 9.0 | 0.00 | 0.00 | 0.00 | 81 | 1007.5 |
| 20260507153457 | 50 | 32 | 4.0 | 9.0 | 0.00 | 0.00 | 0.00 | 82 | 1007.4 |
| 20260507152957 | 49 | 26 | 5.0 | 10.0 | 0.00 | 0.00 | 0.00 | 82 | 1007.4 |
| 20260507152504 | 49 | 26 | 5.0 | 10.0 | 0.00 | 0.00 | 0.00 | 81 | 1007.4 |
| 20260507151958 | 49 | 26 | 5.0 | 11.0 | 0.00 | 0.00 | 0.00 | 81 | 1007.4 |
| 20260507151505 | 50 | 30 | 4.0 | 11.0 | 0.00 | 0.00 | 0.00 | 82 | 1007.6 |
| 20260507150958 | 50 | 42 | 4.0 | 6.0 | 0.00 | 0.00 | 0.00 | 82 | 1007.4 |
| 20260507150505 | 49 | 38 | 4.0 | 8.0 | 0.00 | 0.00 | 0.00 | 83 | 1007.4 |
| 20260507145958 | 49 | 25 | 4.0 | 8.0 | 0.00 | 0.00 | 0.00 | 83 | 1007.5 |
| 20260507145504 | 49 | 13 | 4.0 | 8.0 | 0.00 | 0.00 | 0.00 | 83 | 1007.4 |
| 20260507145005 | 49 | 21 | 3.0 | 7.0 | 0.00 | 0.00 | 0.00 | 84 | 1007.4 |
| 20260507144457 | 49 | 27 | 3.0 | 8.0 | 0.00 | 0.00 | 0.00 | 85 | 1007.4 |
| 20260507144005 | 49 | 25 | 4.0 | 8.0 | 0.00 | 0.00 | 0.00 | 84 | 1007.4 |
| 20260507143458 | 49 | 30 | 4.0 | 8.0 | 0.00 | 0.00 | 0.00 | 84 | 1007.4 |
| 20260507143005 | 49 | 38 | 4.0 | 8.0 | 0.00 | 0.00 | 0.00 | 83 | 1007.4 |
| 20260507142457 | 49 | 36 | 4.0 | 8.0 | 0.00 | 0.00 | 0.00 | 83 | 1007.4 |
| 20260507141957 | 49 | 35 | 4.0 | 9.0 | 0.00 | 0.00 | 0.00 | 84 | 1007.4 |
| 20260507141457 | 49 | 32 | 4.0 | 9.0 | 0.00 | 0.00 | 0.00 | 83 | 1007.4 |
| 20260507140957 | 49 | 22 | 4.0 | 8.0 | 0.00 | 0.00 | 0.00 | 83 | 1007.5 |
| 20260507140504 | 49 | 26 | 5.0 | 11.0 | 0.00 | 0.00 | 0.00 | 84 | 1007.3 |
| 20260507135957 | 49 | 32 | 5.0 | 11.0 | 0.00 | 0.00 | 0.00 | 84 | 1007.2 |
| 20260507135505 | 48 | 25 | 5.0 | 10.0 | 0.00 | 0.00 | 0.00 | 84 | 1007.2 |
| 20260507134959 | 48 | 8 | 4.0 | 8.0 | 0.00 | 0.00 | 0.00 | 84 | 1007.3 |
| 20260507134457 | 48 | 15 | 4.0 | 9.0 | 0.00 | 0.00 | 0.00 | 84 | 1007.3 |
| 20260507134005 | 48 | 23 | 4.0 | 9.0 | 0.00 | 0.00 | 0.00 | 85 | 1007.3 |
| 20260507133458 | 48 | 25 | 4.0 | 9.0 | 0.00 | 0.00 | 0.00 | 85 | 1007.2 |
| 20260507133005 | 48 | 26 | 4.0 | 8.0 | 0.00 | 0.00 | 0.00 | 85 | 1007.3 |
| 20260507132458 | 48 | 24 | 4.0 | 8.0 | 0.00 | 0.00 | 0.00 | 85 | 1007.3 |
| 20260507132005 | 48 | 30 | 3.0 | 8.0 | 0.00 | 0.00 | 0.00 | 85 | 1007.2 |
| 20260507131458 | 48 | 27 | 3.0 | 6.0 | 0.00 | 0.00 | 0.00 | 87 | 1007.4 |
| 20260507131005 | 48 | 21 | 4.0 | 6.0 | 0.00 | 0.00 | 0.00 | 86 | 1007.3 |
| 20260507130457 | 48 | 19 | 4.0 | 7.0 | 0.00 | 0.00 | 0.00 | 87 | 1007.1 |
| 20260507130005 | 48 | 1 | 4.0 | 11.0 | 0.00 | 0.00 | 0.00 | 87 | 1007.1 |
| 20260507125457 | 48 | 9 | 5.0 | 11.0 | 0.00 | 0.00 | 0.00 | 87 | 1007.1 |
| 20260507125005 | 48 | 12 | 5.0 | 11.0 | 0.00 | 0.00 | 0.00 | 88 | 1006.9 |
| 20260507124457 | 48 | 1 | 4.0 | 11.0 | 0.00 | 0.00 | 0.00 | 88 | 1007.0 |
| 20260507124004 | 48 | 8 | 4.0 | 8.0 | 0.00 | 0.00 | 0.00 | 88 | 1007.0 |
| 20260507123457 | 48 | 8 | 3.0 | 8.0 | 0.00 | 0.00 | 0.00 | 89 | 1007.0 |
| 20260507123006 | 48 | 15 | 4.0 | 10.0 | 0.00 | 0.00 | 0.00 | 89 | 1006.9 |
| 20260507122458 | 48 | 25 | 4.0 | 10.0 | 0.00 | 0.00 | 0.00 | 89 | 1007.0 |
| 20260507122005 | 48 | 26 | 3.0 | 10.0 | 0.00 | 0.00 | 0.00 | 90 | 1006.7 |
| 20260507121458 | 48 | 11 | 4.0 | 8.0 | 0.00 | 0.00 | 0.00 | 90 | 1007.0 |
| 20260507121005 | 48 | 1 | 4.0 | 8.0 | 0.00 | 0.00 | 0.00 | 90 | 1006.9 |
| 20260507120458 | 48 | 10 | 5.0 | 9.0 | 0.00 | 0.00 | 0.00 | 89 | 1006.6 |
| 20260507120005 | 47 | 10 | 5.0 | 9.0 | 0.00 | 0.00 | 0.00 | 89 | 1006.6 |
| 20260507115458 | 48 | 7 | 4.0 | 9.0 | 0.00 | 0.00 | 0.00 | 89 | 1006.7 |
| 20260507115005 | 48 | 29 | 4.0 | 10.0 | 0.00 | 0.00 | 0.00 | 89 | 1006.4 |
| 20260507114458 | 48 | 40 | 5.0 | 10.0 | 0.00 | 0.00 | 0.00 | 89 | 1006.4 |
| 20260507114005 | 48 | 26 | 5.0 | 11.0 | 0.00 | 0.00 | 0.00 | 89 | 1006.3 |
| 20260507113457 | 48 | 22 | 4.0 | 11.0 | 0.00 | 0.00 | 0.00 | 89 | 1006.3 |
| 20260507113005 | 48 | 33 | 4.0 | 11.0 | 0.00 | 0.00 | 0.00 | 89 | 1006.4 |
| 20260507112458 | 48 | 33 | 4.0 | 8.0 | 0.00 | 0.00 | 0.00 | 88 | 1006.3 |
| 20260507112006 | 48 | 34 | 4.0 | 8.0 | 0.00 | 0.00 | 0.00 | 88 | 1006.3 |
| 20260507111457 | 48 | 36 | 4.0 | 8.0 | 0.00 | 0.00 | 0.00 | 88 | 1006.3 |
| 20260507111004 | 47 | 41 | 4.0 | 7.0 | 0.00 | 0.00 | 0.00 | 87 | 1006.3 |
| 20260507110458 | 48 | 43 | 4.0 | 8.0 | 0.00 | 0.00 | 0.00 | 87 | 1006.2 |
| 20260507110005 | 48 | 39 | 4.0 | 9.0 | 0.00 | 0.00 | 0.00 | 87 | 1006.3 |
| 20260507105458 | 48 | 35 | 5.0 | 9.0 | 0.00 | 0.00 | 0.00 | 87 | 1006.3 |
| 20260507104958 | 48 | 38 | 4.0 | 9.0 | 0.00 | 0.00 | 0.00 | 87 | 1006.1 |
| 20260507104506 | 48 | 39 | 4.0 | 9.0 | 0.00 | 0.00 | 0.00 | 88 | 1006.4 |
| 20260507103958 | 47 | 33 | 4.0 | 8.0 | 0.00 | 0.00 | 0.00 | 89 | 1006.2 |
| 20260507103505 | 47 | 36 | 5.0 | 11.0 | 0.00 | 0.00 | 0.00 | 89 | 1006.2 |
| 20260507102957 | 47 | 31 | 5.0 | 11.0 | 0.00 | 0.00 | 0.00 | 89 | 1006.1 |
| 20260507102505 | 47 | 20 | 4.0 | 9.0 | 0.00 | 0.00 | 0.00 | 90 | 1006.1 |
| 20260507101957 | 47 | 25 | 4.0 | 9.0 | 0.00 | 0.00 | 0.00 | 90 | 1006.0 |
| 20260507101504 | 47 | 26 | 4.0 | 8.0 | 0.00 | 0.00 | 0.00 | 91 | 1006.0 |
| 20260507100957 | 47 | 25 | 3.0 | 8.0 | 0.00 | 0.00 | 0.00 | 91 | 1006.0 |
| 20260507100505 | 47 | 30 | 4.0 | 9.0 | 0.00 | 0.00 | 0.00 | 91 | 1005.8 |
| 20260507095958 | 47 | 35 | 4.0 | 9.0 | 0.00 | 0.00 | 0.00 | 91 | 1005.5 |
| 20260507095504 | 47 | 38 | 4.0 | 9.0 | 0.00 | 0.00 | 0.00 | 89 | 1005.5 |
| 20260507094958 | 47 | 42 | 5.0 | 10.0 | 0.00 | 0.00 | 0.00 | 89 | 1005.4 |
| 20260507094458 | 47 | 39 | 5.0 | 11.0 | 0.00 | 0.00 | 0.00 | 89 | 1005.4 |
| 20260507094005 | 47 | 36 | 5.0 | 11.0 | 0.00 | 0.00 | 0.00 | 89 | 1005.5 |
| 20260507093458 | 47 | 34 | 5.0 | 11.0 | 0.00 | 0.00 | 0.00 | 89 | 1005.3 |
| 20260507093005 | 47 | 33 | 5.0 | 11.0 | 0.00 | 0.00 | 0.00 | 88 | 1005.3 |
| 20260507092458 | 47 | 36 | 5.0 | 12.0 | 0.00 | 0.00 | 0.00 | 88 | 1005.1 |
| 20260507091957 | 47 | 36 | 6.0 | 12.0 | 0.00 | 0.00 | 0.00 | 87 | 1005.2 |
| 20260507091505 | 47 | 39 | 5.0 | 11.0 | 0.00 | 0.00 | 0.00 | 87 | 1005.2 |
| 20260507091004 | 47 | 45 | 5.0 | 8.0 | 0.00 | 0.00 | 0.00 | 87 | 1005.1 |
| 20260507090505 | 47 | 41 | 5.0 | 9.0 | 0.00 | 0.00 | 0.00 | 89 | 1005.0 |
| 20260507090006 | 47 | 40 | 5.0 | 9.0 | 0.00 | 0.00 | 0.00 | 89 | 1005.1 |
| 20260507085506 | 47 | 42 | 5.0 | 11.0 | 0.00 | 0.00 | 0.00 | 89 | 1005.0 |
| 20260507085005 | 46 | 39 | 5.0 | 11.0 | 0.00 | 0.00 | 0.00 | 89 | 1005.0 |
| 20260507084505 | 47 | 32 | 5.0 | 11.0 | 0.00 | 0.00 | 0.00 | 89 | 1004.8 |
| 20260507084005 | 46 | 35 | 5.0 | 11.0 | 0.00 | 0.00 | 0.00 | 89 | 1004.9 |
| 20260507083505 | 46 | 39 | 5.0 | 11.0 | 0.00 | 0.00 | 0.00 | 89 | 1005.0 |
| 20260507083006 | 46 | 37 | 6.0 | 11.0 | 0.00 | 0.00 | 0.00 | 89 | 1004.9 |
| 20260507082458 | 46 | 36 | 5.0 | 11.0 | 0.00 | 0.00 | 0.00 | 90 | 1004.9 |
| 20260507081958 | 46 | 38 | 6.0 | 11.0 | 0.00 | 0.00 | 0.00 | 90 | 1004.9 |
| 20260507081505 | 46 | 37 | 7.0 | 11.0 | 0.00 | 0.00 | 0.00 | 90 | 1004.6 |
| 20260507080958 | 46 | 28 | 8.0 | 11.0 | 0.00 | 0.00 | 0.00 | 90 | 1004.6 |
| 20260507080506 | 46 | 29 | 7.0 | 11.0 | 0.00 | 0.00 | 0.00 | 90 | 1004.6 |
| 20260507075958 | 46 | 43 | 5.0 | 11.0 | 0.00 | 0.00 | 0.00 | 90 | 1004.5 |
| 20260507075506 | 46 | 44 | 5.0 | 10.0 | 0.00 | 0.00 | 0.00 | 90 | 1004.3 |
| 20260507074958 | 46 | 39 | 5.0 | 9.0 | 0.00 | 0.01 | 0.00 | 91 | 1004.5 |
| 20260507074458 | 46 | 39 | 5.0 | 11.0 | 0.00 | 0.01 | 0.00 | 91 | 1004.3 |
| 20260507074005 | 46 | 34 | 4.0 | 11.0 | 0.00 | 0.01 | 0.00 | 92 | 1004.1 |
| 20260507073458 | 46 | 28 | 4.0 | 9.0 | 0.00 | 0.01 | 0.00 | 92 | 1004.3 |
| 20260507073006 | 46 | 32 | 5.0 | 9.0 | 0.00 | 0.01 | 0.00 | 92 | 1004.2 |
| 20260507072458 | 46 | 34 | 5.0 | 9.0 | 0.00 | 0.01 | 0.00 | 92 | 1004.2 |
| 20260507072006 | 46 | 41 | 5.0 | 9.0 | 0.00 | 0.01 | 0.00 | 92 | 1004.1 |
| 20260507071458 | 46 | 39 | 6.0 | 11.0 | 0.00 | 0.01 | 0.00 | 93 | 1004.3 |
| 20260507071005 | 46 | 27 | 7.0 | 11.0 | 0.00 | 0.01 | 0.00 | 93 | 1004.2 |
| 20260507070458 | 45 | 19 | 6.0 | 10.0 | 0.00 | 0.01 | 0.00 | 94 | 1003.7 |
| 20260507070010 | 45 | 30 | 5.0 | 11.0 | 0.00 | 0.01 | 0.00 | 94 | 1003.9 |
| 20260507065457 | 45 | 40 | 6.0 | 12.0 | 0.00 | 0.01 | 0.00 | 94 | 1003.9 |
| 20260507065006 | 45 | 38 | 5.0 | 12.0 | 0.00 | 0.01 | 0.00 | 94 | 1003.9 |
| 20260507064458 | 45 | 43 | 5.0 | 10.0 | 0.00 | 0.01 | 0.00 | 95 | 1003.6 |
| 20260507064005 | 45 | 34 | 5.0 | 13.0 | 0.00 | 0.01 | 0.00 | 95 | 1003.5 |
| 20260507063505 | 45 | 29 | 6.0 | 13.0 | 0.00 | 0.01 | 0.00 | 95 | 1003.5 |
| 20260507063006 | 45 | 26 | 6.0 | 13.0 | 0.00 | 0.01 | 0.00 | 95 | 1003.5 |
| 20260507062506 | 45 | 12 | 6.0 | 13.0 | 0.00 | 0.01 | 0.00 | 96 | 1003.5 |
| 20260507061958 | 45 | 30 | 5.0 | 11.0 | 0.00 | 0.01 | 0.00 | 96 | 1003.5 |
| 20260507061506 | 45 | 30 | 4.0 | 9.0 | 0.00 | 0.01 | 0.00 | 96 | 1003.6 |
| 20260507060957 | 45 | 8 | 4.0 | 8.0 | 0.00 | 0.01 | 0.00 | 97 | 1003.5 |
| 20260507060505 | 45 | 14 | 4.0 | 10.0 | 0.00 | 0.01 | 0.00 | 97 | 1003.4 |
| 20260507055958 | 45 | 32 | 5.0 | 10.0 | 0.00 | 0.01 | 0.00 | 97 | 1003.4 |
| 20260507055506 | 45 | 23 | 5.0 | 11.0 | 0.00 | 0.01 | 0.00 | 97 | 1003.5 |
| 20260507054958 | 45 | 348 | 5.0 | 11.0 | 0.00 | 0.01 | 0.00 | 97 | 1003.5 |
| 20260507054505 | 45 | 351 | 6.0 | 11.0 | 0.00 | 0.01 | 0.00 | 97 | 1003.4 |
| 20260507053958 | 45 | 22 | 5.0 | 11.0 | 0.00 | 0.01 | 0.00 | 100 | 1003.4 |
| 20260507053458 | 45 | 35 | 5.0 | 11.0 | 0.00 | 0.01 | 0.00 | 100 | 1003.1 |
| 20260507052958 | 45 | 45 | 5.0 | 12.0 | 0.00 | 0.01 | 0.00 | 100 | 1003.1 |
| 20260507052458 | 44 | 46 | 6.0 | 12.0 | 0.00 | 0.01 | 0.00 | 99 | 1002.9 |
| 20260507052006 | 44 | 46 | 7.0 | 13.0 | 0.00 | 0.01 | 0.00 | 100 | 1002.8 |
| 20260507051458 | 44 | 42 | 7.0 | 13.0 | 0.00 | 0.01 | 0.00 | 100 | 1002.9 |
| 20260507051006 | 45 | 42 | 6.0 | 11.0 | 0.00 | 0.01 | 0.00 | 99 | 1003.0 |
| 20260507050458 | 45 | 39 | 6.0 | 13.0 | 0.00 | 0.01 | 0.00 | 99 | 1002.9 |
| 20260507050006 | 44 | 33 | 6.0 | 13.0 | 0.00 | 0.01 | 0.00 | 99 | 1002.8 |
| 20260507045459 | 45 | 29 | 6.0 | 12.0 | 0.00 | 0.01 | 0.00 | 99 | 1002.8 |
| 20260507044959 | 45 | 28 | 6.0 | 12.0 | 0.00 | 0.01 | 0.00 | 99 | 1002.9 |
| 20260507044458 | 44 | 25 | 6.0 | 11.0 | 0.00 | 0.01 | 0.00 | 99 | 1002.9 |
| 20260507043957 | 45 | 13 | 5.0 | 11.0 | 0.00 | 0.01 | 0.00 | 99 | 1002.9 |
| 20260507043506 | 45 | 36 | 4.0 | 9.0 | 0.00 | 0.01 | 0.00 | 99 | 1002.9 |
| 20260507043007 | 45 | 29 | 5.0 | 11.0 | 0.00 | 0.01 | 0.00 | 99 | 1002.9 |
| 20260507042507 | 45 | 30 | 6.0 | 11.0 | 0.00 | 0.01 | 0.00 | 99 | 1002.8 |
| 20260507042009 | 45 | 28 | 5.0 | 11.0 | 0.00 | 0.01 | 0.00 | 99 | 1002.8 |
| 20260507041459 | 45 | 356 | 5.0 | 11.0 | 0.00 | 0.01 | 0.00 | 99 | 1002.4 |
| 20260507041006 | 44 | 343 | 6.0 | 11.0 | 0.00 | 0.01 | 0.00 | 99 | 1002.5 |
| 20260507040507 | 45 | 346 | 6.0 | 12.0 | 0.00 | 0.01 | 0.00 | 99 | 1002.4 |
| 20260507035958 | 44 | 20 | 6.0 | 13.0 | 0.00 | 0.01 | 0.00 | 99 | 1002.3 |
| 20260507035458 | 45 | 24 | 5.0 | 13.0 | 0.00 | 0.01 | 0.00 | 99 | 1002.0 |
| 20260507034959 | 45 | 338 | 4.0 | 10.0 | 0.00 | 0.01 | 0.00 | 99 | 1002.0 |
| 20260507034506 | 45 | 339 | 5.0 | 10.0 | 0.00 | 0.01 | 0.00 | 99 | 1001.8 |
| 20260507034006 | 45 | 354 | 5.0 | 11.0 | 0.00 | 0.01 | 0.00 | 100 | 1002.0 |
| 20260507033459 | 45 | 350 | 5.0 | 11.0 | 0.00 | 0.01 | 0.00 | 100 | 1002.0 |
| 20260507033006 | 45 | 349 | 4.0 | 10.0 | 0.00 | 0.01 | 0.00 | 100 | 1001.9 |
| 20260507032458 | 45 | 347 | 5.0 | 10.0 | 0.00 | 0.01 | 0.00 | 100 | 1001.9 |
| 20260507032006 | 45 | 357 | 5.0 | 11.0 | 0.00 | 0.01 | 0.00 | 97 | 1001.9 |
| 20260507031506 | 45 | 359 | 6.0 | 11.0 | 0.00 | 0.01 | 0.00 | 97 | 1001.8 |
| 20260507030959 | 45 | 356 | 7.0 | 10.0 | 0.00 | 0.01 | 0.00 | 97 | 1001.8 |
| 20260507030506 | 45 | 1 | 5.0 | 10.0 | 0.00 | 0.01 | 0.00 | 97 | 1001.8 |
| 20260507025958 | 45 | 1 | 4.0 | 9.0 | 0.00 | 0.01 | 0.00 | 97 | 1001.8 |
| 20260507025505 | 45 | 1 | 4.0 | 8.0 | 0.00 | 0.01 | 0.00 | 97 | 1001.7 |
| 20260507025008 | 45 | 357 | 3.0 | 8.0 | 0.00 | 0.01 | 0.00 | 97 | 1001.7 |
| 20260507024506 | 45 | 6 | 3.0 | 7.0 | 0.00 | 0.01 | 0.00 | 100 | 1001.8 |
| 20260507024008 | 45 | 358 | 4.0 | 9.0 | 0.00 | 0.01 | 0.00 | 100 | 1001.6 |
| 20260507023006 | 45 | 356 | 4.0 | 9.0 | 0.00 | 0.01 | 0.00 | 100 | 1001.8 |
| 20260507022458 | 45 | 8 | 5.0 | 10.0 | 0.00 | 0.01 | 0.00 | 97 | 1001.7 |
| 20260507022007 | 45 | 23 | 5.0 | 10.0 | 0.00 | 0.01 | 0.00 | 97 | 1001.6 |
| 20260507021506 | 45 | 21 | 5.0 | 11.0 | 0.00 | 0.01 | 0.00 | 97 | 1001.8 |
| 20260507021007 | 45 | 11 | 4.0 | 11.0 | 0.00 | 0.01 | 0.00 | 97 | 1001.8 |
| 20260507020506 | 45 | 5 | 4.0 | 10.0 | 0.00 | 0.01 | 0.00 | 97 | 1001.8 |
| 20260507015958 | 45 | 14 | 5.0 | 10.0 | 0.00 | 0.01 | 0.00 | 97 | 1001.7 |
| 20260507015458 | 45 | 8 | 5.0 | 10.0 | 0.00 | 0.01 | 0.00 | 97 | 1001.6 |
| 20260507014957 | 45 | 17 | 5.0 | 11.0 | 0.00 | 0.01 | 0.00 | 97 | 1001.4 |
| 20260507014508 | 45 | 24 | 5.0 | 13.0 | 0.00 | 0.01 | 0.00 | 96 | 1001.4 |
| 20260507014006 | 46 | 12 | 6.0 | 13.0 | 0.00 | 0.01 | 0.00 | 96 | 1001.2 |
| 20260507013506 | 46 | 15 | 5.0 | 11.0 | 0.00 | 0.01 | 0.00 | 96 | 1001.1 |
| 20260507013007 | 46 | 23 | 6.0 | 14.0 | 0.00 | 0.01 | 0.00 | 96 | 1001.0 |